N2NET Weather Reports


time (UTC)temp
F
wind
direction
speed
knots
gust
knots
rain 1hr
in
rain 24hr
in
rain mn
in
humidity
%
barometer
mb
20260905233105 64 0 0.0 0.0 0.00 0.00 0.00 44 1013.0
20260905231607 65 0 0.0 2.6 0.00 0.00 0.00 58 1012.9
20260905230110 65 0 0.0 0.0 0.00 0.00 0.00 65 1012.7
20260905224621 66 0 0.0 0.0 0.00 0.00 0.00 68 1012.7
20260905223107 66 0 0.0 0.0 0.00 0.00 0.00 72 1012.7
20260905221605 67 209 0.0 2.6 0.00 0.00 0.00 74 1012.6
20260905220118 68 0 0.0 5.2 0.00 0.00 0.00 70 1012.7
20260905214609 69 143 2.6 8.7 0.00 0.00 0.00 69 1012.7
20260905213105 69 17 1.7 7.8 0.00 0.00 0.00 69 1012.2
20260905211559 70 0 0.0 0.0 0.00 0.00 0.00 72 1012.0
20260905210109 70 0 0.0 0.9 0.00 0.00 0.00 69 1011.9
20260905204600 71 0 1.7 7.0 0.00 0.00 0.00 66 1011.9
20260905203114 71 307 3.5 7.8 0.00 0.00 0.00 64 1011.5
20260905201559 71 75 0.9 6.1 0.00 0.00 0.00 65 1011.5
20260905200108 71 336 0.0 1.7 0.00 0.00 0.00 68 1011.7
20260905194600 71 0 0.0 0.0 0.00 0.00 0.00 71 1011.6
20260905193103 71 0 0.0 3.5 0.00 0.00 0.00 70 1011.6
20260905191609 72 120 2.6 6.1 0.00 0.00 0.00 64 1011.5
20260905190103 74 0 0.0 3.5 0.00 0.00 0.00 62 1011.4
20260905184611 74 113 0.9 2.6 0.00 0.00 0.00 60 1011.3
20260905183102 72 0 0.0 0.0 0.00 0.00 0.00 68 1011.5
20260905181612 73 0 0.0 0.9 0.00 0.00 0.00 64 1011.6
20260905180105 74 0 0.0 4.3 0.00 0.00 0.00 61 1011.6
20260905174604 74 94 1.7 3.5 0.00 0.00 0.00 62 1011.5
20260905173106 72 0 0.0 2.6 0.00 0.00 0.00 66 1011.7
20260905171636 72 0 0.0 1.7 0.00 0.00 0.00 64 1011.7
20260905170106 70 149 0.0 3.5 0.00 0.00 0.00 66 1011.9
20260905164602 71 305 0.0 3.5 0.00 0.00 0.00 63 1011.8
20260905163105 72 0 0.0 0.9 0.00 0.00 0.00 62 1011.9
20260905161602 72 0 0.0 0.9 0.00 0.00 0.00 65 1011.7
20260905160109 71 217 0.0 2.6 0.00 0.00 0.00 65 1011.8
20260905154648 71 0 0.0 1.7 0.00 0.00 0.00 63 1011.7
20260905153104 71 0 0.9 3.5 0.00 0.00 0.00 63 1011.8
20260905151605 71 332 2.6 4.3 0.00 0.00 0.00 62 1012.1
20260905150108 70 337 0.0 4.3 0.00 0.00 0.00 64 1012.1
20260905144557 70 0 0.0 5.2 0.00 0.00 0.00 66 1012.0
20260905143107 71 155 0.0 8.7 0.00 0.00 0.00 66 1012.0
20260905141604 69 0 0.9 3.5 0.00 0.00 0.00 69 1011.9
20260905140109 67 322 1.7 7.8 0.00 0.00 0.00 68 1011.8
20260905134608 66 288 2.6 7.0 0.00 0.00 0.00 69 1011.8
20260905133103 66 217 1.7 6.1 0.00 0.00 0.00 70 1011.9
20260905131602 65 0 0.0 2.6 0.00 0.00 0.00 68 1012.0
20260905130059 66 67 0.0 2.6 0.00 0.00 0.00 69 1012.1
20260905124604 66 52 0.0 0.9 0.00 0.00 0.00 68 1012.3
20260905123104 66 319 0.9 7.0 0.00 0.00 0.00 66 1012.2
20260905121608 65 0 0.0 3.5 0.00 0.00 0.00 11 1012.3
20260905120105 62 0 0.0 7.0 0.00 0.00 0.00 100 1012.2
20260905114609 58 210 0.0 0.0 0.00 0.00 0.00 100 1012.0
20260905113104 57 0 0.0 0.0 0.00 0.00 0.00 100 1012.0
20260905111631 56 0 0.0 0.0 0.00 0.00 0.00 100 1011.7
20260905110112 56 0 0.0 0.0 0.00 0.00 0.00 100 1011.5
20260905104619 56 0 0.0 0.0 0.00 0.01 0.00 100 1011.3
20260905103104 55 0 0.0 0.0 0.00 0.01 0.00 100 1011.1
20260905101604 55 0 0.0 0.9 0.00 0.01 0.00 100 1011.1
20260905100104 56 0 0.0 1.7 0.00 0.01 0.00 100 1011.0
20260905094716 56 210 0.0 0.0 0.00 0.01 0.00 100 1011.2
20260905093131 57 0 0.0 0.0 0.00 0.01 0.00 100 1011.2
20260905091605 57 0 0.0 0.0 0.00 0.01 0.00 100 1011.1
20260905090103 58 210 0.0 1.7 0.00 0.01 0.00 100 1011.1
20260905084609 58 0 0.0 1.7 0.00 0.01 0.00 100 1011.0
20260905083103 58 0 0.0 0.9 0.00 0.01 0.00 100 1011.1
20260905081605 59 0 0.0 1.7 0.00 0.01 0.00 100 1011.1
20260905080121 60 207 0.9 1.7 0.00 0.01 0.00 100 1011.2
20260905074606 60 0 0.0 1.7 0.00 0.01 0.00 100 1011.3
20260905073110 61 0 0.0 0.9 0.00 0.01 0.00 19 1011.3
20260905071601 61 231 0.9 2.6 0.00 0.01 0.00 50 1011.5
20260905070107 63 214 1.7 2.6 0.00 0.01 0.00 69 1011.4
20260905064557 65 260 0.9 6.1 0.00 0.09 0.00 71 1011.6
20260905063100 65 245 0.9 9.6 0.00 0.09 0.00 71 1011.6
20260905061606 65 0 4.3 12.2 0.00 0.09 0.00 71 1011.6
20260905060109 64 229 0.0 4.3 0.00 0.09 0.00 72 1011.7
20260905054608 66 326 0.9 8.7 0.00 0.14 0.00 71 1011.7
20260905053059 66 296 0.9 12.2 0.00 0.14 0.00 71 1011.9
20260905051610 66 301 2.6 7.8 0.00 0.14 0.00 71 1012.1
20260905044604 66 246 2.6 10.4 0.00 0.14 0.00 71 1012.3
20260905043058 65 176 0.9 3.5 0.00 0.14 0.00 72 1012.3
20260905041611 66 207 0.9 9.6 0.00 0.14 0.00 71 1012.2
20260905040112 66 334 0.9 5.2 0.00 0.14 0.00 71 1012.3
20260905034606 66 0 0.0 7.8 0.00 0.14 0.14 70 1012.3
20260905033114 68 335 1.7 10.4 0.00 0.14 0.14 68 1012.3
20260905031621 68 276 1.7 12.2 0.00 0.14 0.14 67 1012.1
20260905030109 68 323 2.6 9.6 0.00 0.14 0.14 66 1012.1
20260905024613 68 37 0.9 7.0 0.00 0.14 0.14 66 1012.1
20260905023107 68 336 1.7 6.1 0.00 0.14 0.14 66 1012.3
20260905021615 67 0 1.7 11.3 0.00 0.14 0.14 67 1012.4
20260905020058 63 0 0.0 5.2 0.00 0.14 0.14 45 1012.7
20260905014602 63 206 0.0 2.6 0.00 0.14 0.14 48 1012.3
20260905013120 63 0 0.0 1.7 0.00 0.14 0.14 31 1012.5
20260905011610 63 0 0.0 2.6 0.00 0.14 0.14 33 1012.6
20260905004606 63 0 0.0 0.0 0.00 0.14 0.14 8 1012.7
20260905003102 64 0 0.0 0.0 0.00 0.14 0.14 27 1012.6
20260905001601 64 0 0.0 0.0 0.00 0.14 0.14 40 1012.4
20260905000106 65 0 0.9 6.1 0.00 0.14 0.14 45 1012.2
20260904234604 65 0 0.0 0.9 0.00 0.14 0.14 48 1012.1